Location: Góry Miechowskie
(50.3599°N, 20.1803°E)
Time: 13:49:06
(UTC+00:00)

S-56A Canister/Altair - Visible Passes

Search period start: 13 September 2024 00:00
Search period end: 23 September 2024 00:00
Orbit: 637 x 2487 km, 38.9° (Epoch: 12 September)

Date Brightness Start Highest point End Pass type
(mag) Time Alt. Az. Time Alt. Az. Time Alt. Az.
13 Sep 9.2 18:38:40 10° SW 18:44:39 34° SSE 18:48:23 25° ESE visible
13 Sep 9.6 20:40:46 10° WSW 20:45:41 34° SW 20:45:41 34° SW visible
14 Sep 9.2 18:05:23 10° SW 18:10:50 30° SSE 18:15:58 17° ESE visible
14 Sep 9.3 20:07:13 10° WSW 20:13:16 38° SSW 20:13:16 38° SSW visible
14 Sep 10.8 22:10:25 10° WSW 22:10:34 11° WSW 22:10:34 11° WSW visible
15 Sep 9.3 17:32:08 10° SSW 17:37:04 27° SSE 17:43:32 10° ESE visible
15 Sep 9.2 19:33:43 10° WSW 19:40:07 38° S 19:40:51 37° SSE visible
15 Sep 10.5 21:36:40 10° WSW 21:38:08 16° WSW 21:38:08 16° WSW visible
16 Sep 9.1 19:00:15 10° WSW 19:06:11 36° S 19:08:24 31° SSE visible
16 Sep 10.1 21:02:59 10° WSW 21:05:42 21° WSW 21:05:42 21° WSW visible
17 Sep 9.1 18:26:49 10° SW 18:32:18 34° S 18:35:59 23° SE visible
17 Sep 9.8 20:29:21 10° WSW 20:33:17 26° SW 20:33:17 26° SW visible
18 Sep 9.1 17:53:26 10° SW 17:58:29 31° S 18:03:34 16° ESE visible
18 Sep 9.5 19:55:45 10° WSW 20:00:52 30° SSW 20:00:52 30° SSW visible
19 Sep 9.1 17:20:03 10° SW 17:24:42 29° SSE 17:30:56 10° ESE visible
19 Sep 9.4 19:22:13 10° WSW 19:27:49 30° S 19:28:28 30° S visible
20 Sep 9.3 18:48:41 10° WSW 18:53:56 30° S 18:56:04 26° SSE visible
20 Sep 10.4 20:52:11 10° WSW 20:53:22 13° WSW 20:53:22 13° WSW visible
21 Sep 9.2 18:15:12 10° WSW 18:20:04 29° S 18:23:42 19° SE visible
21 Sep 10.1 20:18:27 10° WSW 20:21:01 17° SW 20:21:01 17° SW visible
22 Sep 9.2 17:41:43 10° WSW 17:46:15 28° S 17:51:22 13° SE visible
22 Sep 9.9 19:44:46 10° WSW 19:48:40 20° SSW 19:48:40 20° SSW visible
